EW1850 Weather Reports


time (UTC)temp
C
wind
direction
speed
KPH
gust
KPH
rain 1hr
cm
rain 24hr
cm
rain mn
cm
humidity
%
barometer
mb
20260906003421 -17 0 0.0 0.0 0.00 0.00 0.00 100
20260906002519 -17 0 0.0 0.0 0.00 0.00 0.00 100
20260906000521 -17 0 0.0 0.0 0.00 0.00 0.00 100
20260905235521 -17 0 0.0 0.0 0.00 0.00 0.00 100
20260905233621 -17 0 0.0 0.0 0.00 0.00 0.00 100
20260905232719 -17 0 0.0 0.0 0.00 0.00 0.00 100
20260905225720 -17 0 0.0 0.0 0.00 0.00 0.00 100
20260905224720 -17 0 0.0 0.0 0.00 0.00 0.00 100
20260905223720 -17 0 0.0 0.0 0.00 0.00 0.00 100
20260905222813 36 22 0.0 0.0 0.00 0.00 0.00 100 559.6
20260905221814 37 22 0.0 0.0 0.00 0.00 0.00 100 559.6
20260905220813 37 247 0.0 0.0 0.00 0.00 0.00 100 559.6
20260905215813 37 202 0.0 0.0 0.00 0.00 0.00 100 559.6
20260905214815 37 247 0.0 1.6 0.00 0.00 0.00 100 991.4
20260905214715 37 247 0.0 0.0 0.00 0.00 0.00 100 991.4
20260905213713 38 180 0.0 0.0 0.00 0.00 0.00 100 1023.6
20260905213616 38 180 0.0 1.6 0.00 0.00 0.00 100
20260905212615 38 279 0.0 3.2 0.00 0.00 0.00 100
20260905211713 38 315 0.0 0.0 0.00 0.00 0.00 100
20260905210712 38 202 0.0 0.0 0.00 0.00 0.00 100
20260905205715 38 337 0.0 3.2 0.00 0.00 0.00 100
20260905204812 38 292 0.0 0.0 0.00 0.00 0.00 100
20260905203813 38 315 0.0 4.8 0.00 0.00 0.00 100
20260905203715 38 326 3.2 11.3 0.00 0.00 0.00 100
20260905202714 38 302 0.0 1.6 0.00 0.00 0.00 100
20260905201812 38 299 1.6 14.5 0.00 0.00 0.00 100
20260905200813 38 202 0.0 4.8 0.00 0.00 0.00 100
20260905200714 38 225 4.8 9.7 0.00 0.00 0.00 100
20260905195813 38 206 0.0 1.6 0.00 0.00 0.00 100
20260905194815 38 248 0.0 6.4 0.00 0.00 0.00 100
20260905193813 37 226 0.0 6.4 0.00 0.00 0.00 100
20260905193712 37 263 0.0 6.4 0.00 0.00 0.00 100
20260905192712 37 202 0.0 3.2 0.00 0.00 0.00 100
20260905191812 37 202 0.0 1.6 0.00 0.00 0.00 100
20260905190813 37 225 1.6 6.4 0.00 0.00 0.00 100 1092.0
20260905185814 37 250 3.2 8.0 0.00 0.00 0.00 100
20260905183815 37 337 1.6 9.7 0.00 0.00 0.00 100 1089.6
20260905182815 38 241 1.6 6.4 0.00 0.00 0.00 100 1089.6
20260905175913 37 225 0.0 1.6 0.00 0.00 0.00 100 1094.1
20260905174914 37 160 4.8 9.7 0.00 0.00 0.00 100 1097.9
20260905173113 37 215 4.8 9.7 0.00 0.00 0.00 100
20260905172113 37 215 1.6 6.4 0.00 0.00 0.00 100
20260905170113 36 187 1.6 4.8 0.00 0.00 0.00 100
20260905165212 36 159 0.0 3.2 0.00 0.00 0.00 100
20260905164216 37 207 0.0 0.0 0.00 0.00 0.00 100
20260905163213 36 185 0.0 0.0 0.00 0.00 0.00 100
20260905162214 36 315 0.0 0.0 0.00 0.00 0.00 100
20260905161313 35 289 1.6 6.4 0.00 0.00 0.00 100
20260905160314 36 112 0.0 1.6 0.00 0.00 0.00 100
20260905160213 36 112 1.6 6.4 0.00 0.00 0.00 100
20260905155213 35 213 0.0 0.0 0.00 0.00 0.00 100
20260905155112 35 180 0.0 4.8 0.00 0.00 0.00 100
20260905154114 35 215 0.0 0.0 0.00 0.00 0.00 100
20260905153113 35 239 0.0 1.6 0.00 0.00 0.00 100 1042.1
20260905152116 35 274 1.6 9.7 0.00 0.00 0.00 100 979.8
20260905151212 34 135 0.0 1.6 0.00 0.00 0.00 100 672.7
20260905150213 32 45 0.0 0.0 0.00 0.00 0.00 100 559.6
20260905144213 32 45 0.0 1.6 0.00 0.00 0.00 100 559.6
20260905143214 32 17 0.0 4.8 0.00 0.00 0.00 100 559.6
20260905142216 31 22 0.0 0.0 0.00 0.00 0.00 100 559.6
20260905141214 30 44 0.0 1.6 0.00 0.00 0.00 100 559.6
20260905140214 29 33 0.0 1.6 0.00 0.00 0.00 100 559.6
20260905135313 28 45 0.0 1.6 0.00 0.00 0.00 100 559.6
20260905135214 28 45 0.0 0.0 0.00 0.00 0.00 100 559.6
20260905134213 -17 0 0.0 0.0 0.00 0.00 0.00 100
20260905133212 -17 0 0.0 0.0 0.00 0.00 0.00 100
20260905132213 -17 0 0.0 0.0 0.00 0.00 0.00 100
20260905131214 -17 0 0.0 0.0 0.00 0.00 0.00 100
20260905130313 -17 0 0.0 0.0 0.00 0.00 0.00 100
20260905125315 -17 0 0.0 0.0 0.00 0.00 0.00 100
20260905124314 -17 0 0.0 0.0 0.00 0.00 0.00 100
20260905124215 -17 0 0.0 0.0 0.00 0.00 0.00 100
20260905123214 -17 0 0.0 0.0 0.00 0.00 0.00 100
20260905121313 -17 0 0.0 0.0 0.00 0.00 0.00 100
20260905120314 -17 0 0.0 0.0 0.00 0.00 0.00 100
20260905115313 -17 0 0.0 0.0 0.00 0.00 0.00 100
20260905114314 -17 0 0.0 0.0 0.00 0.00 0.00 100
20260905112428 -17 0 0.0 0.0 0.00 0.00 0.00 100
20260905110414 -17 0 0.0 0.0 0.00 0.00 0.00 100
20260905105414 -17 0 0.0 0.0 0.00 0.00 0.00 100
20260905104513 -17 0 0.0 0.0 0.00 0.00 0.00 100
20260905103516 -17 0 0.0 0.0 0.00 0.00 0.00 100
20260905102612 -17 0 0.0 0.0 0.00 0.00 0.00 100
20260905102513 -17 0 0.0 0.0 0.00 0.00 0.00 100
20260905101514 -17 0 0.0 0.0 0.00 0.00 0.00 100
20260905100512 -17 0 0.0 0.0 0.00 0.00 0.00 100
20260905095512 -17 0 0.0 0.0 0.00 0.00 0.00 100
20260905094513 -17 0 0.0 0.0 0.00 0.00 0.00 100
20260905093513 -17 0 0.0 0.0 0.00 0.00 0.00 100
20260905092516 -17 0 0.0 0.0 0.00 0.00 0.00 100
20260905091514 -17 0 0.0 0.0 0.00 0.00 0.00 100
20260905091412 -17 0 0.0 0.0 0.00 0.00 0.00 100
20260905090414 -17 0 0.0 0.0 0.00 0.00 0.00 100
20260905084413 -17 0 0.0 0.0 0.00 0.00 0.00 100
20260905083512 -17 0 0.0 0.0 0.00 0.00 0.00 100
20260905082516 -17 0 0.0 0.0 0.00 0.00 0.00 100
20260905081514 -17 0 0.0 0.0 0.00 0.00 0.00 100
20260905080514 -17 0 0.0 0.0 0.00 0.00 0.00 100
20260905075515 -17 0 0.0 0.0 0.00 0.00 0.00 100
20260905074514 -17 0 0.0 0.0 0.00 0.00 0.00 100
20260905073516 -17 0 0.0 0.0 0.00 0.00 0.00 100
20260905073414 -17 0 0.0 0.0 0.00 0.00 0.00 100
20260905072414 -17 0 0.0 0.0 0.00 0.00 0.00 100
20260905071415 -17 0 0.0 0.0 0.00 0.00 0.00 100
20260905070413 -17 0 0.0 0.0 0.00 0.00 0.00 100
20260905065414 -17 0 0.0 0.0 0.00 0.00 0.00 100
20260905064415 -17 0 0.0 0.0 0.00 0.00 0.00 100
20260905063513 -17 0 0.0 0.0 0.00 0.00 0.00 100
20260905062513 -17 0 0.0 0.0 0.00 0.00 0.00 100
20260905061515 -17 0 0.0 0.0 0.00 0.00 0.00 100
20260905060513 -17 0 0.0 0.0 0.00 0.00 0.00 100
20260905055514 -17 0 0.0 0.0 0.00 0.00 0.00 100
20260905053613 -17 0 0.0 0.0 0.00 0.00 0.00 100
20260905052614 -17 0 0.0 0.0 0.00 0.00 0.00 100
20260905051614 -17 0 0.0 0.0 0.00 0.00 0.00 100
20260905050614 -17 0 0.0 0.0 0.00 0.00 0.00 100
20260905045710 -17 0 0.0 0.0 0.00 0.00 0.00 100
20260905043708 -17 0 0.0 0.0 0.00 0.00 0.00 100
20260905042707 -17 0 0.0 0.0 0.00 0.00 0.00 100
20260905040710 -17 0 0.0 0.0 0.00 0.00 0.00 100
20260905035808 -17 0 0.0 0.0 0.00 0.00 0.00 100
20260905033810 -17 0 0.0 0.0 0.00 0.00 0.00 100
20260905032807 -17 0 0.0 0.0 0.00 0.00 0.00 100
20260905031810 -17 0 0.0 0.0 0.00 0.00 0.00 100
20260905030809 -17 0 0.0 0.0 0.00 0.00 0.00 100
20260905025907 -17 0 0.0 0.0 0.00 0.00 0.00 100
20260905024907 -17 0 0.0 0.0 0.00 0.00 0.00 100
20260905024808 -17 0 0.0 0.0 0.00 0.00 0.00 100
20260905023807 -17 0 0.0 0.0 0.00 0.00 0.00 100
20260905022808 -17 0 0.0 0.0 0.00 0.00 0.00 100
20260905021807 -17 0 0.0 0.0 0.00 0.00 0.00 100
20260905013832 27 202 0.0 0.0 0.00 0.00 0.00 100
20260905012930 28 202 0.0 0.0 0.00 0.00 0.00 100
20260905010931 28 202 0.0 0.0 0.00 0.00 0.00 100
20260905004932 29 202 0.0 0.0 0.00 0.00 0.00 100